User: anonymous   Login
Location: Unspecified
(0.0000°N, 0.0000°E)
Time: 19:54:40
(UTC+02:00)
Language:

SJ-6B - Orbit

View from above orbital plane
View from above orbital plane
View from above satellite
View from above satellite

Ground track
Ground track

The orbit data is extracted from the following two-line orbital elements,

1 28415U 04035C   15215.10759436  .00001498  00000-0  10767-3 0  9997
2 28415 097.7951 227.8896 0052511 279.8840 079.6460 15.04808242595649
Epoch (UTC): 03 August 2015 02:34:56
Eccentricity: 0.0052511
inclination: 97.7951°
perigee height: 516 km
apogee height: 588 km
right ascension of ascending node: 227.8896°
argument of perigee: 279.8840°
revolutions per day: 15.04808242
mean anomaly at epoch: 79.6460°
orbit number at epoch: 59564

The dashed part of the orbit path shows where the satellite is in the earth's shadow,  

DLR